Munin Explorer — C4XX2 — position and weather

sailwx.info

Track history (hours):
 
Tides and Currents Weather Stations Pressure Air Temp Water Temp Dewpoint Dewpoint Depression Visibility Wind Speed Wind Dir Waves Ship Positions

Munin Explorer

Last reported at 2014-Jul-30 10:33 UTC. Time now 2014-Jul-31 19:37 UTC.
Position N 57°48' W 001°11'.

Length 60 m; draft 7.2 m.

Type: Ship. MMSI: 210228000.

Date/timePositionNaut miles runAvg speedWind from/ knotsBaromVisibWave heightAir tempDewpointWater temp
2014-Jul-30 10:33N 57°48' W 001°11'3 0.5
2014-Jul-30 05:13N 57°48' W 001°06'3 3.8
2014-Jul-30 04:31N 57°49' W 001°10'0 0.0
2014-Jul-29 00:03N 57°49' W 001°11'2 3.0
2014-Jul-28 23:33N 57°49' W 001°08'4 4.3
2014-Jul-28 22:33N 57°48' W 000°60'4 4.3
2014-Jul-28 21:33N 57°48' W 000°52'0 0.1
2014-Jul-28 20:17N 57°48' W 000°52'3 4.3
2014-Jul-28 19:33N 57°48' W 000°57'5 4.1
2014-Jul-28 18:18N 57°49' W 001°07'1 0.1
2014-Jul-28 03:28N 57°48' W 001°05'5 4.3
2014-Jul-28 02:14N 57°48' W 000°55'3 0.4
2014-Jul-27 19:33N 57°48' W 000°60'6 0.3
2014-Jul-26 23:12N 57°49' W 001°11'6 1.8
2014-Jul-26 20:04N 57°48' W 001°00'2 4.3
2014-Jul-26 19:33N 57°48' W 000°56'3 3.0
2014-Jul-26 18:33N 57°48' W 000°51'2 2.4
2014-Jul-26 17:33N 57°48' W 000°55'4 4.3
2014-Jul-26 16:33N 57°49' W 001°03'3 2.6
2014-Jul-26 15:34N 57°49' W 001°08'4 4.3
2014-Jul-26 14:33N 57°48' W 000°60'4 4.3
2014-Jul-26 13:33N 57°48' W 000°52'0 0.4
2014-Jul-26 12:33N 57°48' W 000°51'4 4.3
2014-Jul-26 11:33N 57°48' W 000°59'4 4.3
2014-Jul-26 10:33N 57°49' W 001°07'0 0.2
2014-Jul-26 09:33N 57°49' W 001°07'2 1.5
2014-Jul-26 08:33N 57°49' W 001°05'4 4.0
2014-Jul-26 07:33N 57°48' W 000°57'4 4.4
2014-Jul-26 06:33N 57°48' W 000°49'2 2.2
2014-Jul-26 05:33N 57°48' W 000°53'5 2.7
2014-Jul-26 03:33N 57°49' W 001°03'4 4.1
2014-Jul-26 02:33N 57°49' W 001°11'4 3.9
2014-Jul-26 01:33N 57°50' W 001°04'6 3.0
2014-Jul-25 23:33N 57°49' W 001°15'3 3.4
2014-Jul-25 22:33N 57°50' W 001°09'2 2.1
2014-Jul-25 21:27N 57°50' W 001°04'3 3.8
2014-Jul-25 20:33N 57°50' W 001°11'1 1.2
2014-Jul-25 19:33N 57°49' W 001°09'1 1.4
2014-Jul-25 18:33N 57°49' W 001°06'1 0.6
2014-Jul-25 17:33N 57°49' W 001°05'4 4.3
2014-Jul-25 16:33N 57°48' W 000°57'4 4.3
2014-Jul-25 15:32N 57°48' W 000°49'6 2.9
2014-Jul-25 13:28N 57°49' W 001°00'1 0.3
2014-Jul-25 10:06N 57°49' W 001°02'3 3.8
2014-Jul-25 09:26N 57°49' W 000°58'4 4.3
2014-Jul-25 08:33N 57°48' W 000°51'2 1.5
2014-Jul-25 07:33N 57°48' W 000°48'9 2.2
2014-Jul-25 03:32N 57°49' W 001°05'3 3.2
2014-Jul-25 02:33N 57°50' W 001°10'4 4.4
2014-Jul-25 01:33N 57°49' W 001°02'4 4.4
2014-Jul-25 00:33N 57°48' W 000°54'3 2.6
2014-Jul-24 23:25N 57°48' W 000°49'4 4.4
2014-Jul-24 22:33N 57°49' W 000°56'5 4.3
2014-Jul-24 21:24N 57°49' W 001°05'1 1.7
2014-Jul-24 20:33N 57°49' W 001°08'3 3.2
2014-Jul-24 19:33N 57°49' W 001°02'4 4.2
2014-Jul-24 18:33N 57°48' W 000°54'0 0.5
2014-Jul-24 17:32N 57°48' W 000°53'4 4.3
2014-Jul-24 16:33N 57°49' W 001°01'4 4.3
2014-Jul-24 15:33N 57°49' W 001°09'1 1.4
2014-Jul-24 14:33N 57°49' W 001°06'4 4.3
2014-Jul-24 13:33N 57°49' W 000°58'7 1.5
2014-Jul-24 09:03N 57°49' W 001°11'2 3.5
2014-Jul-24 08:33N 57°49' W 001°08'4 4.4
2014-Jul-24 07:33N 57°49' W 000°60'4 4.2
2014-Jul-24 06:33N 57°48' W 000°52'4 1.7
2014-Jul-24 04:30N 57°49' W 000°58'6 3.1
2014-Jul-24 02:33N 57°50' W 001°10'5 4.5
2014-Jul-24 01:21N 57°49' W 000°60'4 4.2
2014-Jul-24 00:28N 57°49' W 000°53'2 0.8
2014-Jul-23 22:33N 57°49' W 000°55'1 0.6
2014-Jul-23 20:21N 57°49' W 000°58'5 4.4
2014-Jul-23 19:13N 57°49' W 001°07'2 3.2
2014-Jul-23 18:33N 57°50' W 001°11'7 4.5
2014-Jul-23 17:04N 57°49' W 000°59'4 1.0
2014-Jul-23 12:33N 57°49' W 001°07'0 0.3
2014-Jul-23 11:26N 57°49' W 001°07'4 4.4
2014-Jul-23 10:32N 57°49' W 001°00'2 0.3
2014-Jul-23 04:33N 57°49' W 001°03'4 0.8
2014-Jul-22 23:25N 57°50' W 001°11'3 3.5
2014-Jul-22 22:33N 57°50' W 001°05'5 4.4
2014-Jul-22 21:30N 57°50' W 000°57'3 1.3
2014-Jul-22 19:33N 57°50' W 001°01'4 4.1
2014-Jul-22 18:31N 57°49' W 000°53'4 4.3
2014-Jul-22 17:33N 57°50' W 001°01'5 4.7
2014-Jul-22 16:33N 57°50' W 001°10'2 2.2
2014-Jul-22 15:33N 57°50' W 001°06'4 4.1
2014-Jul-22 14:29N 57°50' W 000°58'  
Track history (hours):
 
Tides and Currents Weather Stations Pressure Air Temp Water Temp Dewpoint Dewpoint Depression Visibility Wind Speed Wind Dir Waves Ship Positions

Munin Explorer

Last reported at 2014-Jul-30 10:33 UTC. Time now 2014-Jul-31 19:37 UTC.
Position N 57°48' W 001°11'.

Length 60 m; draft 7.2 m.

Type: Ship. MMSI: 210228000.

Date/timePositionNaut miles runAvg speedWind from/ knotsBaromVisibWave heightAir tempDewpointWater temp
2014-Jul-30 10:33N 57°48' W 001°11'3 0.5
2014-Jul-30 05:13N 57°48' W 001°06'3 3.8
2014-Jul-30 04:31N 57°49' W 001°10'0 0.0
2014-Jul-29 00:03N 57°49' W 001°11'2 3.0
2014-Jul-28 23:33N 57°49' W 001°08'4 4.3
2014-Jul-28 22:33N 57°48' W 000°60'4 4.3
2014-Jul-28 21:33N 57°48' W 000°52'0 0.1
2014-Jul-28 20:17N 57°48' W 000°52'3 4.3
2014-Jul-28 19:33N 57°48' W 000°57'5 4.1
2014-Jul-28 18:18N 57°49' W 001°07'1 0.1
2014-Jul-28 03:28N 57°48' W 001°05'5 4.3
2014-Jul-28 02:14N 57°48' W 000°55'3 0.4
2014-Jul-27 19:33N 57°48' W 000°60'6 0.3
2014-Jul-26 23:12N 57°49' W 001°11'6 1.8
2014-Jul-26 20:04N 57°48' W 001°00'2 4.3
2014-Jul-26 19:33N 57°48' W 000°56'3 3.0
2014-Jul-26 18:33N 57°48' W 000°51'2 2.4
2014-Jul-26 17:33N 57°48' W 000°55'4 4.3
2014-Jul-26 16:33N 57°49' W 001°03'3 2.6
2014-Jul-26 15:34N 57°49' W 001°08'4 4.3
2014-Jul-26 14:33N 57°48' W 000°60'4 4.3
2014-Jul-26 13:33N 57°48' W 000°52'0 0.4
2014-Jul-26 12:33N 57°48' W 000°51'4 4.3
2014-Jul-26 11:33N 57°48' W 000°59'4 4.3
2014-Jul-26 10:33N 57°49' W 001°07'0 0.2
2014-Jul-26 09:33N 57°49' W 001°07'2 1.5
2014-Jul-26 08:33N 57°49' W 001°05'4 4.0
2014-Jul-26 07:33N 57°48' W 000°57'4 4.4
2014-Jul-26 06:33N 57°48' W 000°49'2 2.2
2014-Jul-26 05:33N 57°48' W 000°53'5 2.7
2014-Jul-26 03:33N 57°49' W 001°03'4 4.1
2014-Jul-26 02:33N 57°49' W 001°11'4 3.9
2014-Jul-26 01:33N 57°50' W 001°04'6 3.0
2014-Jul-25 23:33N 57°49' W 001°15'3 3.4
2014-Jul-25 22:33N 57°50' W 001°09'2 2.1
2014-Jul-25 21:27N 57°50' W 001°04'3 3.8
2014-Jul-25 20:33N 57°50' W 001°11'1 1.2
2014-Jul-25 19:33N 57°49' W 001°09'1 1.4
2014-Jul-25 18:33N 57°49' W 001°06'1 0.6
2014-Jul-25 17:33N 57°49' W 001°05'4 4.3
2014-Jul-25 16:33N 57°48' W 000°57'4 4.3
2014-Jul-25 15:32N 57°48' W 000°49'6 2.9
2014-Jul-25 13:28N 57°49' W 001°00'1 0.3
2014-Jul-25 10:06N 57°49' W 001°02'3 3.8
2014-Jul-25 09:26N 57°49' W 000°58'4 4.3
2014-Jul-25 08:33N 57°48' W 000°51'2 1.5
2014-Jul-25 07:33N 57°48' W 000°48'9 2.2
2014-Jul-25 03:32N 57°49' W 001°05'3 3.2
2014-Jul-25 02:33N 57°50' W 001°10'4 4.4
2014-Jul-25 01:33N 57°49' W 001°02'4 4.4
2014-Jul-25 00:33N 57°48' W 000°54'3 2.6
2014-Jul-24 23:25N 57°48' W 000°49'4 4.4
2014-Jul-24 22:33N 57°49' W 000°56'5 4.3
2014-Jul-24 21:24N 57°49' W 001°05'1 1.7
2014-Jul-24 20:33N 57°49' W 001°08'3 3.2
2014-Jul-24 19:33N 57°49' W 001°02'4 4.2
2014-Jul-24 18:33N 57°48' W 000°54'0 0.5
2014-Jul-24 17:32N 57°48' W 000°53'4 4.3
2014-Jul-24 16:33N 57°49' W 001°01'4 4.3
2014-Jul-24 15:33N 57°49' W 001°09'1 1.4
2014-Jul-24 14:33N 57°49' W 001°06'4 4.3
2014-Jul-24 13:33N 57°49' W 000°58'7 1.5
2014-Jul-24 09:03N 57°49' W 001°11'2 3.5
2014-Jul-24 08:33N 57°49' W 001°08'4 4.4
2014-Jul-24 07:33N 57°49' W 000°60'4 4.2
2014-Jul-24 06:33N 57°48' W 000°52'4 1.7
2014-Jul-24 04:30N 57°49' W 000°58'6 3.1
2014-Jul-24 02:33N 57°50' W 001°10'5 4.5
2014-Jul-24 01:21N 57°49' W 000°60'4 4.2
2014-Jul-24 00:28N 57°49' W 000°53'2 0.8
2014-Jul-23 22:33N 57°49' W 000°55'1 0.6
2014-Jul-23 20:21N 57°49' W 000°58'5 4.4
2014-Jul-23 19:13N 57°49' W 001°07'2 3.2
2014-Jul-23 18:33N 57°50' W 001°11'7 4.5
2014-Jul-23 17:04N 57°49' W 000°59'4 1.0
2014-Jul-23 12:33N 57°49' W 001°07'0 0.3
2014-Jul-23 11:26N 57°49' W 001°07'4 4.4
2014-Jul-23 10:32N 57°49' W 001°00'2 0.3
2014-Jul-23 04:33N 57°49' W 001°03'4 0.8
2014-Jul-22 23:25N 57°50' W 001°11'3 3.5
2014-Jul-22 22:33N 57°50' W 001°05'5 4.4
2014-Jul-22 21:30N 57°50' W 000°57'3 1.3
2014-Jul-22 19:33N 57°50' W 001°01'4 4.1
2014-Jul-22 18:31N 57°49' W 000°53'4 4.3
2014-Jul-22 17:33N 57°50' W 001°01'5 4.7
2014-Jul-22 16:33N 57°50' W 001°10'2 2.2
2014-Jul-22 15:33N 57°50' W 001°06'4 4.1
2014-Jul-22 14:29N 57°50' W 000°58'  

Dump ship's entire track history